{"data":{"norad_id":68558,"epoch":"2026-09-19T06:59:34.160640Z","epoch_age_seconds":149097,"freshness":"FRESH","line1":"1 68558U 26070S   26262.29136760  .00012325  00000+0  37525-3 0  9996","line2":"2 68558  53.1583 179.2376 0001562  80.3575 279.7604 15.34404555 26252","mean_motion":15.34404555,"eccentricity":0.0001562,"inclination_deg":53.1583,"raan_deg":179.2376,"arg_perigee_deg":80.3575,"mean_anomaly_deg":279.7604,"bstar":0.00037525,"rev_number":2625,"period_min":93.847479486921,"perigee_km":461.62116468985,"apogee_km":463.7582389515,"semimajor_km":6840.8267018207,"source":"CELESTRAK","updated_at":"2026-09-20T09:00:43.936162Z"}}